Location: Ambatotampy
(18.8181°S, 47.6186°E)
Time: 00:10:44
(UTC+00:00)

SJ 16-02 - Pass Details

Date: 21 January 2021
Orbit: 607 x 615 km, 75.0° (Epoch: 24 February)

Event Time Altitude Azimuth Distance (km) Brightness Sun altitude
Rises 01:56:01 0° 18° (NNE) 2,848 4.7 -8.0°
Reaches altitude 10° 01:58:44 10° 36° (NE) 1,954 4.1 -7.4°
Maximum altitude 02:01:53 19° 82° (E) 1,444 4.2 -6.7°
Drops below altitude 10° 02:05:02 10° 128° (SE) 1,974 5.5 -6.0°
Sets 02:07:47 0° 145° (SE) 2,888 5.9 -5.4°
